> Web
Analytics View My Stats
box saran
Judi Online Terpercaya

Jackpot

Texas Poker Multi Jackpot System

Kini Telah hadir Jackpot SUPER ROYAL FLUSH

Kini Telah hadir Jackpot 2000 (khusus table VIP keatas).

Ikutilah global jackpot yang tersedia di system kami, dengan system jackpot terbaru dan pertama di indonesia, anda dapat membeli jackpot dengan harga 100 rupiah saja dan menangkan hadiahnya hingga puluhan juta rupiah.

Jackpot bukanlah suatu keharusan untuk dibeli, namun kami memberikan suatu fitur tambahan untuk member tercinta dari www.qqraja.poker.

Terdapat tiga pilihan harga jackpot yang bisa anda beli yaitu :100,500,1000 dan 2000(khusus table VIP Keatas) rupiah.

Hadiah dari Multi jackpot system www.qqraja.poker

  1. full house x 10 harga jackpot yang anda beli.
      (contoh:anda membeli 1000 maka:1000 X10 = 10.000)
  2. four of kind x 250 harga jackpot yang anda beli
      (contoh:anda membeli 1000 maka:1000 X250 = 250.000)
  3. Straight flush x 1200
      (contoh:anda membeli 1000 maka:1000 X1200 = 1.200.000)
  4. Royal flush x 10000 harga jackpot yang anda beli
      (contoh:anda membeli 1000 maka:1000 X10000 = 10.000.000)
  5. SUPER ROYAL FLUSH x 30000 harga jackpot yang anda beli
      (contoh:anda membeli 1000 maka:1000 X30000 = 30.000.000)

Kondisi kartu

  1. full house adalah kondisi kartu dimana kartu anda dan kartu tengah dengan total 7 kartu bisa mendapatkan nilai 5 kartu dengan kombinasi 1 tris(three of kind) dan 1 pair, contoh 3 kartu 10 dan 2 kartu 5
  2. Four of kind adalah kondisi kartu dimana kartu anda dan kartu tengah dengan total 7 kartu bisa mendapatkan nilai 5 kartu dengan kombinasi 4 kartu yang sama jumlah dan 1 kartu apapun juga contoh anda mendapatkan 4 buah kartu angka 3 dan 1 kartu apapun.
  3. Staright flush adalah kondisi kartu dimana kartu anda dan kartu tengah dengan total 7 kartu bisa mendapatkan nilai 5 kartu dengan kombinasi seri / staright dengan kembang yang sama contoh : urutan kartu dari angka 5, 6, 7, 8 , 9 10 dengan kembang yg sama misalnya as hati
  4. Royal flush adalah kondisi kartu dimana kartu anda dan kartu tengah dengan total 7 kartu bisa mendapatkan nilai 5 kartu dengan kombinasi seri / staright dengan kembang yang sama tetapi kartu tersebut haruslah dimulai dari 10. contoh 10, Queen, Jack, King dan aces dengan kembang yang sama
  5. Super Royal flush adalah kondisi kartu dimana Kedua kartu anda digabung dengan 3 kartu pertama meja haruslah royal flush. contoh kartu anda 10,Queen kembang sama dan 3 kartu pertama meja adalah Jack, King dan aces dengan kembang yang sama

Demikian adalah penjelasan dari Multi Jackpot www.qqraja.poker terima kasih dan selamat bermain salam hoki dari kami

Texas Poker Jackpot Winner

TOP SUPER ROYAL FLUSH
No.TanggalNamaPriceWin
123/09 00:01ANTY69Super Royal flush6,000,000
222/09 23:57ACUY456Super Royal flush6,000,000
322/09 22:37HEBOH_9Super Royal flush6,000,000
422/09 21:03SAMSUDIN99Super Royal flush6,000,000
522/09 19:41A4627HGSuper Royal flush3,000,000
TOP ROYAL FLUSH
No.TanggalNamaPriceWin
123/09 04:11QQZER8S1CLRoyal flush10,000,000
223/09 03:59IDHAMIDHAMRoyal flush2,000,000
323/09 03:46WAKANDA4EVRoyal flush2,000,000
423/09 03:45RAMUK77Royal flush5,000,000
523/09 03:23BIDUAN555Royal flush2,000,000
TOP STRAIGHT FLUSH
No.TanggalNamaPriceWin
123/09 04:42PKRNEWHENGStraight Flush1,200,000
223/09 04:29AY4T52Straight Flush600,000
323/09 04:27RANI28Straight Flush240,000
423/09 04:27BILY123456Straight Flush240,000
523/09 04:26ZOLDICK77Straight Flush240,000
LATEST JACKPOT
No.TanggalNamaPriceWin
123/09 04:46RONALD0Full House1,000
223/09 04:46CHUDEL25Full House2,000
323/09 04:46YK6ZR4YOFLFour Of A Kind12,500
423/09 04:45LINCAH77Full House5,000
523/09 04:45SAPU_IJUKFull House2,000
623/09 04:45VIPBUZZFull House5,000
723/09 04:45BR3ND3NFull House1,000
823/09 04:45Q7J6K5V9AFour Of A Kind250,000
923/09 04:45LONG26888Full House2,000
1023/09 04:45DODI98Full House2,000
1123/09 04:45PILATXXFull House10,000
1223/09 04:45GUGRKXZZ41Full House2,000
1323/09 04:45AINUN22Full House5,000
1423/09 04:45CHANDUT9Full House1,000
1523/09 04:45JUMBOTGFull House10,000
1623/09 04:45F4A85505Four Of A Kind125,000
1723/09 04:45BA5461L1Full House2,000
1823/09 04:45OT1580Full House2,000
1923/09 04:45CHUNLONG98Full House5,000
2023/09 04:45CIBAI770Full House2,000
2123/09 04:45JVB00Full House5,000
2223/09 04:45BANGDUDUNGFull House10,000
2323/09 04:45JV1YSL4RITFull House10,000
2423/09 04:45F559138AFull House500
2523/09 04:45PAY100000Full House10,000
2623/09 04:45ANNA15Full House1,000
2723/09 04:45CAVANI17Full House1,000
2823/09 04:45PLGSIHOMBINGFull House2,000
2923/09 04:45IDNGENIK84Full House1,000
3023/09 04:45N2CELFull House5,000
3123/09 04:45KWVEKM2QI9Full House2,000
3223/09 04:45MUTTUTURINFull House2,000
3323/09 04:45MANTOY27Full House2,000
3423/09 04:45TEMPIK01Full House2,000
3523/09 04:45IPANRINALFull House1,000
3623/09 04:45C380SS613Full House1,000
3723/09 04:45VEBVRQI8KDFull House10,000
3823/09 04:45PAWARWA99Four Of A Kind50,000
3923/09 04:45JELLITAAFour Of A Kind50,000
4023/09 04:45KUNDENG50KFull House1,000
4123/09 04:45PALUI07Full House5,000
4223/09 04:45YUNI10Full House1,000
4323/09 04:45C4342627Full House2,000
4423/09 04:45FEROZA07Full House10,000
4523/09 04:45PAKIWAN29Full House10,000
4623/09 04:45M4ST3R99JPFull House5,000
4723/09 04:45P0CC0N9Full House2,000
4823/09 04:45AP3ICJQ6BDFull House5,000
4923/09 04:45BARU9696Full House10,000
5023/09 04:45JANDA1979Full House20,000

Domino Multi Jackpot System

Ikutilah global jackpot yang tersedia di system kami, dengan system jackpot terbaru dan pertama di indonesia, anda dapat membeli jackpot dengan harga 100 rupiah saja dan menangkan hadiahnya hingga puluhan juta rupiah.

Jackpot bukanlah suatu keharusan untuk dibeli, namun kami memberikan suatu fitur tambahan untuk member tercinta dari www.qqraja.poker.

Terdapat tiga pilihan harga jackpot yang bisa anda beli yaitu :100,500 dan 1000 rupiah.

Hadiah dari Multi jackpot system www.qqraja.poker

  1. Murni Kecil x 50 harga jackpot yang anda beli.
      (contoh:anda membeli 1000 maka:1000 X 50 = 50.000)
  2. Murni Besar x 50 harga jackpot yang anda beli
      (contoh:anda membeli 1000 maka:1000 X 50 = 50.000)
  3. BALAK x 100 harga jackpot yang anda beli
      (contoh:anda membeli 1000 maka:1000 X 100 = 100.000)
  4. ENAM DEWA x 6666 harga jackpot yang anda beli
      (contoh:anda membeli 1000 maka:1000 X 6666 = 6.666.000)

Demikian adalah penjelasan dari Multi Jackpot www.qqraja.poker terima kasih dan selamat bermain salam hoki dari kami

Domino Jackpot Winner

TOP ENAM DEWA
No.TanggalNamaPriceWin
123/09 04:24JINNALLEmurni enam3,333,000
223/09 03:12KEROCO2424murni enam3,333,000
323/09 02:29YELIS94murni enam3,333,000
423/09 01:07TRIAD7murni enam6,666,000
523/09 01:04ANCEMON84murni enam6,666,000
TOP BALAK
No.TanggalNamaPriceWin
123/09 04:45MUCHYASbalak50,000
223/09 04:44MILKY909balak100,000
323/09 04:39VALDO017balak100,000
423/09 04:35VIRGINJObalak100,000
523/09 04:34FADERSbalak100,000
LATEST JACKPOT
No.TanggalNamaPriceWin
123/09 04:45BUYAN26murni besar50,000
223/09 04:45BOBY74murni kecil50,000
323/09 04:456666THORmurni kecil5,000
423/09 04:45MUCHYASbalak50,000
523/09 04:45ZUIIImurni besar50,000
623/09 04:45APES233lucky992,500
723/09 04:44CELENK69murni besar5,000
823/09 04:44MILKY909balak100,000
923/09 04:44RANTI11murni kecil5,000
1023/09 04:43RIYANKY29murni kecil5,000
1123/09 04:43BP888911murni besar50,000
1223/09 04:43PAOK08murni besar5,000
1323/09 04:41B78ULFI595murni kecil50,000
1423/09 04:41SEPITENG77murni besar50,000
1523/09 04:40ALINJPmurni besar50,000
1623/09 04:40NGEPET_33murni kecil5,000
1723/09 04:40T2684NIlucky992,500
1823/09 04:39VALDO017balak100,000
1923/09 04:37J4LI8888murni kecil25,000
2023/09 04:36WATON_WAEmurni kecil50,000
2123/09 04:35VIRGINJObalak100,000
2223/09 04:35SAMAH08murni kecil50,000
2323/09 04:35WARIIIK99murni besar25,000
2423/09 04:34FADERSbalak100,000
2523/09 04:34P5YCH0balak10,000
2623/09 04:33JEBOL071murni kecil50,000
2723/09 04:33SNOOKERSSmurni kecil50,000
2823/09 04:33F7309BC7murni kecil50,000
2923/09 04:33JULUNG27murni besar50,000
3023/09 04:33JETTY02murni kecil5,000
3123/09 04:32SELESmurni kecil5,000
3223/09 04:30EA3B562Cmurni besar25,000
3323/09 04:29IKIWAE_96murni kecil5,000
3423/09 04:29DOLKEM12murni kecil50,000
3523/09 04:29B61PANGOT80301balak10,000
3623/09 04:29DENDEN2403murni kecil50,000
3723/09 04:284LCOPSmurni kecil50,000
3823/09 04:27H13murni kecil25,000
3923/09 04:27SABLENG999murni kecil25,000
4023/09 04:27LAPES88murni kecil25,000
4123/09 04:27EA3B562Cmurni besar25,000
4223/09 04:26DAYONG_murni kecil50,000
4323/09 04:25A39OY15970murni besar50,000
4423/09 04:25DA1213KCmurni kecil50,000
4523/09 04:25FADERSmurni kecil50,000
4623/09 04:24DIPRA123murni besar50,000
4723/09 04:24JINNALLEmurni enam3,333,000
4823/09 04:24JETTY02balak10,000
4923/09 04:23REJEKIYOKOmurni kecil50,000
5023/09 04:22TRYD20murni besar5,000

Ceme Multi Jackpot System

Jackpot dilihat dari gabungan kartu pemain dengan kartu bandar. Bandar harus membeli jackpot sebanyak jumlah player yang sedang duduk. Sebagai contoh bila terdapat 3 pemain duduk bermain, dan bandar memutuskan untuk membeli jackpot Rp 1.000, maka pada periode tersebut bandar akan membeli jackpot sebanyak 3xRp1.000 = Rp3.000.

Jackpot bukanlah suatu keharusan untuk dibeli, namun kami memberikan suatu fitur tambahan untuk member tercinta dari www.qqraja.poker.

Terdapat tiga pilihan harga jackpot yang bisa anda beli yaitu :100,500 dan 1000 rupiah.

Hadiah dari Multi jackpot system www.qqraja.poker

  1. Murni Kecil x 50 harga jackpot yang anda beli.
      (contoh:anda membeli 1000 maka:1000 X 50 = 50.000)
  2. Murni Besar x 50 harga jackpot yang anda beli
      (contoh:anda membeli 1000 maka:1000 X 50 = 50.000)
  3. BALAK x 200 harga jackpot yang anda beli
      (contoh:anda membeli 1000 maka:1000 X 200 = 200.000)
  4. ENAM DEWA x 6666 harga jackpot yang anda beli
      (contoh:anda membeli 1000 maka:1000 X 6666 = 6.666.000)

Demikian adalah penjelasan dari Multi Jackpot www.qqraja.poker terima kasih dan selamat bermain salam hoki dari kami

Ceme Jackpot Winner

TOP ENAM DEWA
No.TanggalNamaPriceWin
123/09 04:20BBFEFA63murni enam666,600
223/09 04:00WQ8FL227Q8murni enam6,666,000
323/09 03:22WLOVERS22murni enam6,666,000
423/09 03:22REONAmurni enam6,666,000
523/09 03:18MOLDING12murni enam6,666,000
TOP BALAK
No.TanggalNamaPriceWin
123/09 04:45EKADS1202balak200,000
223/09 04:43MELAWANbalak200,000
323/09 04:43PELOPOR801balak200,000
423/09 04:42GELOXSbalak200,000
523/09 04:42SM787878balak200,000
LATEST JACKPOT
No.TanggalNamaPriceWin
123/09 04:45C9165946murni besar50,000
223/09 04:45OCEN92WM78murni besar25,000
323/09 04:45FUCKYOU234murni besar5,000
423/09 04:45AGSC899999murni kecil50,000
523/09 04:45BOLANG1598murni kecil25,000
623/09 04:45EKADS1202balak200,000
723/09 04:45S4BUHOK12murni kecil50,000
823/09 04:45FERIS06murni kecil25,000
923/09 04:45BOYY20murni kecil5,000
1023/09 04:44ZIPPO09murni kecil25,000
1123/09 04:44MDRCEPRIN1977murni kecil50,000
1223/09 04:44IAP06murni kecil50,000
1323/09 04:44P4TK41murni kecil50,000
1423/09 04:44JHONSMITHmurni besar50,000
1523/09 04:44BENDROmurni besar5,000
1623/09 04:43LENRAmurni kecil5,000
1723/09 04:43MELAWANbalak200,000
1823/09 04:43PELOPOR801balak200,000
1923/09 04:43BUDIQEYmurni kecil50,000
2023/09 04:43MULTI88844murni besar5,000
2123/09 04:42CENLONK69murni kecil25,000
2223/09 04:42GELOXSbalak200,000
2323/09 04:42SM787878balak200,000
2423/09 04:42UNTUNG2403murni kecil50,000
2523/09 04:42DEXHIT579murni kecil5,000
2623/09 04:42UNTUNG2403murni kecil50,000
2723/09 04:42JAPARSKYmurni kecil25,000
2823/09 04:42SAPAT53murni kecil50,000
2923/09 04:42WAHIDUN729murni kecil50,000
3023/09 04:42LINGKAR99murni besar50,000
3123/09 04:42OB3T99murni besar50,000
3223/09 04:42MONYET2balak200,000
3323/09 04:42FAHRYRAHMAbalak100,000
3423/09 04:42REGARD47murni kecil25,000
3523/09 04:42KEPETZ17murni kecil5,000
3623/09 04:41JESSLYmurni kecil50,000
3723/09 04:41AGUS9890murni kecil50,000
3823/09 04:41HANAPAHmurni besar25,000
3923/09 04:41PUKEK9murni besar5,000
4023/09 04:41MONYET2balak200,000
4123/09 04:41FAHRYRAHMAbalak100,000
4223/09 04:41IRZAKI89murni kecil50,000
4323/09 04:41THESAKAU92murni kecil50,000
4423/09 04:41DIMASGALIHbalak200,000
4523/09 04:40C53CK805murni kecil5,000
4623/09 04:40LINGKAR99murni kecil50,000
4723/09 04:40SELY2244murni kecil50,000
4823/09 04:40KADAVI777murni besar25,000
4923/09 04:40JHONSMITHbalak200,000
5023/09 04:40BAGASTEAbalak20,000